PRAETORIAN SDA_615

基本信息
目录编号:
65579
目录名称:
PRAETORIAN SDA_616
国际标识:
2025-203Q
轨道中心:
EARTH
卫星名称:
PRAETORIAN SDA_615
卫星全名:
PRAETORIAN SDA_615
卫星状态:
在轨 (已飞行41 天)
发射日期:
2025-09-10 UTC
国别 :
美国 (US)
星等 :
--
轨道信息
数据来源 国际轨道数据
星历时间: 2025-10-21T03:35:35+0800
13小时前
查看轨道信息
半长轴: 7326.127km
偏心率: 0.0007065
轨道倾角: 81.305°
近地点辐角 121.816°
升交点赤经 232.541°
平近点角 238.369°
近地点: 942.816km
远地点: 953.168km
周期: 104.009分钟
每日圈数: 13.844943
详细信息
使用方式:
暂无
2D轨道图
3D轨道图
轨道高度分析图
轨道倾角分析图
轨道综合分析图
查看轨道综合分析图